Location: Muenchen
(48.1800°N, 11.5800°E)
Time: 05:17:08
(UTC+01:00)

Vanguard 2 Rocket - Visible Passes

Search period start: 21 January 2017 00:00
Search period end: 31 January 2017 00:00
Orbit: 553 x 3329 km, 32.9° (Epoch: 20 January)

Date Brightness Start Highest point End Pass type
(mag) Time Alt. Az. Time Alt. Az. Time Alt. Az.
21 Jan 10.5 02:36:48 13° SSE 02:36:48 13° SSE 02:38:48 10° SSE visible
21 Jan 10.4 04:42:38 13° SSW 04:42:38 13° SSW 04:47:48 10° SSW visible
22 Jan 10.4 03:46:51 13° S 03:46:51 13° S 03:49:50 10° S visible
